星链-5569 (STARLINK-5569 )

导读 | 豆包AI

STARLINK-5569是美国于2023年1月26日发射的星链卫星,归属SpaceX星链互联网星座项目,用于提供全球覆盖的低延迟宽带互联网服务,运行在近地轨道。作为星链扩容组网的一员,它进一步完善了星链星座的覆盖密度与服务能力,支撑星链面向民用、商用及特殊领域的联网服务。

基本信息
目录编号:
55379
目录名称:
STARLINK-5569
国际标识:
2023-013BA
轨道中心:
EARTH
卫星名称:
星链-5569
卫星全名:
星链-5569 (STARLINK-5569 )
卫星状态:
在轨 (已飞行1144 天)
发射日期:
2023-01-26 UTC
国别 :
美国 (US)
星等 :
--
轨道信息
数据来源 国际轨道数据 AOE轨道数据
星历时间 2026-03-15T14:34:57+0800
8小时前
查看轨道信息
2026-03-13T16:00:00+0800
2天前
查看轨道信息
半长轴 6937.237km 6937.217km
偏心率 0.0001787 0.000147
轨道倾角 43.004° 43.003°
近地点辐角 279.708° 263.153°
升交点赤经 282.616° 293.165°
平近点角 80.356° 26.117°
近地点 557.86km 558.06km
远地点 560.34km 560.1km
周期 95.838分钟 95.838分钟
每日圈数 15.025295 15.025359
详细信息
固有亮度:
5
最大亮度:
2.5
卫星平台:
Starlink v1.5
覆盖范围:
全球
运营商:
太空探索技术公司
运营商所在国:
美国
制造商(研发单位):
太空探索技术公司
制造商所在国:
美国
使用方式:
暂无
卫星简介
星链(Starlink)计划是由太空探索技术公司(SpaceX)提出的一个巨型低轨卫星互联网星座项目,计划在2019年至2024年间在太空搭建由约1.2万颗卫星组成的“星链”网络,其中1584颗将部署在地球上空550千米处的近地轨道,并从2020年开始工作。该卫星仍在工作。
2D轨道图
3D轨道图
轨道高度分析图
轨道倾角分析图
轨道综合分析图
查看轨道综合分析图